LDPE-1

Last updated on Tue Jul 01 2025 00:02:48 GMT+0000 (Coordinated Universal Time)

1 49818U 21118B 25181.55119962 -.00000248 00000+0 00000+0 0 9991 2 49818 2.8256 83.2394 0006827 4.9504 305.0592 1.00653281 13104
UTC large
Height (km)
Speed (km/s)
/
Latitude / Longitude
Inclination (degrees)
Orbital Period (minutes)
Azimuth
Elevation
Range (km)
Doppler Factor

Next 0 passes for location: London (51.5072 / 0.1276)

Sorry there are no passes over London.